Location: Chagrin Falls Park
(41.4139°N, 81.3865°W)
Time: 03:52:34
(UTC+00:00)

STARLINK-2739 - Pass Details

Date: 31 July 2021
Orbit: 546 x 548 km, 53.1° (Epoch: 21 September)

Event Time Altitude Azimuth Distance (km) Brightness Sun altitude
Rises 02:25:53 0° 298° (WNW) 2,721 8.7 -16.4°
Reaches altitude 10° 02:28:24 10° 285° (WNW) 1,823 7.2 -16.8°
Maximum altitude 02:31:49 25° 230° (SW) 1,125 5.2 -17.2°
Enters shadow 02:33:31 19° 193° (SSW) 1,330 5.3 -17.5°
